Weather History for Charles City, IA

Change the Weather History Date:

Sunday, March 23, 2014

  Actual Average Record
Temperature  
Mean Temperature 19 °F -  
Max Temperature 24 °F 46 °F 73 °F (2012)
Min Temperature 14 °F 26 °F 0 °F (1974)
Degree Days  
Heating Degree Days 46    
Moisture  
Dew Point 8 °F    
Average Humidity 63    
Maximum Humidity 74    
Minimum Humidity 50    
Precipitation  
Precipitation 0.00 in - - ()
Sea Level Pressure  
Sea Level Pressure 30.44 in    
Wind  
Wind Speed 11 mph (NNW)    
Max Wind Speed 17 mph    
Max Gust Speed 21 mph    
Visibility 10 miles    
Events      
Averages and records for this station are not official NWS values.
T = Trace of Precipitation, MM = Missing Value Source: NWS Daily Summary

Daily Weather History Graph

Daily Weather History Graph

Search for Another Location

Airport:

Trip Planner

Search our weather history database for the weather conditions in past years. The results will help you decide how hot, cold, wet, or windy it might be!

Date:

Astronomy

Mar. 23, 2014 Rise Set
Actual Time 7:08 AM CDT 7:26 PM CDT
Civil Twilight 6:39 AM CDT 7:54 PM CDT
Nautical Twilight 6:06 AM CDT 8:28 PM CDT
Astronomical Twilight 5:32 AM CDT 9:02 PM CDT
Moon 1:51 AM CDT (3/23) 11:42 AM CDT (3/23)
Length of Visible Light 13h 14m
Length of Day
12h 18m
Waning Gibbous, 54% of the Moon is Illuminated
Mar 23
Waning Gibbous
Mar 23
Last Quarter
Mar 30
New
Apr 7
First Quarter
Apr 15
Full

Hourly Weather History & Observations

Time (CDT) Temp. Windchill Dew Point Humidity Pressure Visibility Wind Dir Wind Speed Gust Speed Precip Events Conditions
12:15 AM 19.4 °F 5.0 °F 8.6 °F 63% 30.46 in 10.0 mi NNW 16.1 mph - N/A   Clear
12:35 AM 19.4 °F 5.5 °F 8.6 °F 63% 30.46 in 10.0 mi NNW 15.0 mph - N/A   Clear
12:55 AM 19.4 °F 5.5 °F 10.4 °F 68% 30.47 in 10.0 mi North 15.0 mph - N/A   Mostly Cloudy
1:15 AM 17.6 °F 2.2 °F 8.6 °F 68% 30.47 in 10.0 mi NNW 17.3 mph - N/A   Overcast
1:35 AM 17.6 °F 3.2 °F 8.6 °F 68% 30.47 in 10.0 mi North 15.0 mph - N/A   Overcast
1:55 AM 17.6 °F 3.7 °F 8.6 °F 68% 30.48 in 10.0 mi North 13.8 mph 19.6 mph N/A   Overcast
2:15 AM 17.6 °F 3.7 °F 6.8 °F 63% 30.48 in 10.0 mi North 13.8 mph 20.7 mph N/A   Overcast
2:35 AM 17.6 °F 3.7 °F 6.8 °F 63% 30.48 in 10.0 mi North 13.8 mph 20.7 mph N/A   Mostly Cloudy
2:55 AM 15.8 °F 1.4 °F 6.8 °F 68% 30.48 in 10.0 mi North 13.8 mph - N/A   Partly Cloudy
3:15 AM 15.8 °F 0.9 °F 6.8 °F 68% 30.48 in 10.0 mi North 15.0 mph - N/A   Clear
3:35 AM 15.8 °F 2.1 °F 6.8 °F 68% 30.48 in 10.0 mi NNW 12.7 mph - N/A   Clear
3:55 AM 15.8 °F 0.9 °F 6.8 °F 68% 30.48 in 10.0 mi NNW 15.0 mph - N/A   Scattered Clouds
4:15 AM 15.8 °F 2.1 °F 6.8 °F 68% 30.48 in 10.0 mi North 12.7 mph - N/A   Scattered Clouds
4:35 AM 15.8 °F 3.4 °F 5.0 °F 62% 30.48 in 10.0 mi North 10.4 mph - N/A   Clear
4:55 AM 15.8 °F 5.1 °F 6.8 °F 68% 30.48 in 10.0 mi North 8.1 mph - N/A   Scattered Clouds
5:15 AM 14.0 °F 3.9 °F 6.8 °F 73% 30.48 in 10.0 mi North 6.9 mph - N/A   Scattered Clouds
5:35 AM 14.0 °F 5.1 °F 6.8 °F 73% 30.49 in 10.0 mi North 5.8 mph - N/A   Partly Cloudy
5:55 AM 14.0 °F 3.9 °F 6.8 °F 73% 30.49 in 10.0 mi NNW 6.9 mph - N/A   Clear
6:15 AM 14.0 °F 3.9 °F 6.8 °F 73% 30.49 in 10.0 mi NNW 6.9 mph - N/A   Clear
6:35 AM 14.0 °F 5.1 °F 6.8 °F 73% 30.49 in 10.0 mi NNW 5.8 mph - N/A   Clear
6:55 AM 14.0 °F 2.0 °F 6.8 °F 73% 30.49 in 10.0 mi North 9.2 mph - N/A   Clear
7:15 AM 14.0 °F 2.9 °F 6.8 °F 73% 30.49 in 10.0 mi North 8.1 mph - N/A   Clear
7:35 AM 14.0 °F 2.9 °F 6.8 °F 73% 30.50 in 10.0 mi North 8.1 mph - N/A   Clear
7:55 AM 14.0 °F 2.9 °F 5.0 °F 67% 30.50 in 10.0 mi NNW 8.1 mph - N/A   Clear
8:15 AM 14.0 °F 2.9 °F 6.8 °F 73% 30.50 in 10.0 mi NNW 8.1 mph - N/A   Clear
8:35 AM 14.0 °F 2.0 °F 5.0 °F 67% 30.50 in 10.0 mi NNW 9.2 mph - N/A   Clear
8:55 AM 15.8 °F 4.2 °F 5.0 °F 62% 30.50 in 10.0 mi NNW 9.2 mph - N/A   Clear
9:15 AM 15.8 °F 6.1 °F 5.0 °F 62% 30.50 in 10.0 mi North 6.9 mph - N/A   Partly Cloudy
9:35 AM 15.8 °F 6.1 °F 5.0 °F 62% 30.50 in 10.0 mi Variable 6.9 mph - N/A   Clear
9:55 AM 15.8 °F 5.1 °F 5.0 °F 62% 30.50 in 10.0 mi NNW 8.1 mph - N/A   Clear
10:15 AM 17.6 °F 5.0 °F 3.2 °F 53% 30.51 in 10.0 mi NNW 11.5 mph - N/A   Clear
10:35 AM 17.6 °F 4.3 °F 5.0 °F 58% 30.50 in 10.0 mi NNW 12.7 mph - N/A   Clear
10:55 AM 17.6 °F 6.4 °F 5.0 °F 58% 30.49 in 10.0 mi North 9.2 mph 16.1 mph N/A   Clear
11:15 AM 17.6 °F 8.2 °F 5.0 °F 58% 30.49 in 10.0 mi North 6.9 mph 15.0 mph N/A   Partly Cloudy
11:35 AM 17.6 °F 6.4 °F 5.0 °F 58% 30.50 in 10.0 mi NW 9.2 mph 17.3 mph N/A   Partly Cloudy
11:55 AM 19.4 °F 11.5 °F 6.8 °F 58% 30.49 in 10.0 mi North 5.8 mph 16.1 mph N/A   Mostly Cloudy
12:15 PM 19.4 °F 8.6 °F 5.0 °F 54% 30.49 in 10.0 mi WNW 9.2 mph - N/A   Mostly Cloudy
12:35 PM 19.4 °F 6.6 °F 6.8 °F 58% 30.49 in 10.0 mi NNW 12.7 mph - N/A   Scattered Clouds
12:55 PM 19.4 °F 7.9 °F 6.8 °F 58% 30.48 in 10.0 mi NNW 10.4 mph - N/A   Mostly Cloudy
1:15 PM 21.2 °F 10.9 °F 8.6 °F 58% 30.47 in 10.0 mi North 9.2 mph - N/A   Overcast
1:30 PM 21.2 °F 11.7 °F 10.4 °F 63% 30.47 in 10.0 mi NNW 8.1 mph - N/A   Mostly Cloudy
1:55 PM 21.2 °F 10.9 °F 8.6 °F 58% 30.45 in 10.0 mi NW 9.2 mph 20.7 mph N/A   Mostly Cloudy
2:15 PM 23.0 °F 11.1 °F 8.6 °F 54% 30.46 in 10.0 mi NW 12.7 mph 18.4 mph N/A   Mostly Cloudy
2:35 PM 23.0 °F 11.7 °F 8.6 °F 54% 30.45 in 10.0 mi NW 11.5 mph - N/A   Mostly Cloudy
2:55 PM 23.0 °F 11.7 °F 8.6 °F 54% 30.44 in 10.0 mi NNW 11.5 mph - N/A   Mostly Cloudy
3:15 PM 23.0 °F 11.7 °F 8.6 °F 54% 30.43 in 10.0 mi NW 11.5 mph 17.3 mph N/A   Mostly Cloudy
3:35 PM 23.0 °F 14.7 °F 8.6 °F 54% 30.43 in 10.0 mi WNW 6.9 mph 15.0 mph N/A   Mostly Cloudy
3:55 PM 23.0 °F 11.7 °F 10.4 °F 59% 30.42 in 10.0 mi NW 11.5 mph - N/A   Overcast
4:15 PM 23.0 °F 11.7 °F 8.6 °F 54% 30.41 in 10.0 mi NW 11.5 mph - N/A   Overcast
4:35 PM 23.0 °F 13.9 °F 8.6 °F 54% 30.41 in 10.0 mi WNW 8.1 mph - N/A   Overcast
4:55 PM 23.0 °F 12.4 °F 8.6 °F 54% 30.41 in 10.0 mi WNW 10.4 mph - N/A   Overcast
5:15 PM 24.8 °F 14.6 °F 10.4 °F 54% 30.40 in 10.0 mi WNW 10.4 mph - N/A   Overcast
5:35 PM 24.8 °F 16.1 °F 10.4 °F 54% 30.39 in 10.0 mi WNW 8.1 mph - N/A   Overcast
5:55 PM 24.8 °F 14.6 °F 10.4 °F 54% 30.38 in 10.0 mi WNW 10.4 mph 17.3 mph N/A   Mostly Cloudy
6:15 PM 24.8 °F 16.1 °F 8.6 °F 50% 30.38 in 10.0 mi NNW 8.1 mph - N/A   Scattered Clouds
6:35 PM 23.0 °F - 8.6 °F 54% 30.37 in 10.0 mi Calm Calm - N/A   Scattered Clouds
6:55 PM 23.0 °F 17.0 °F 8.6 °F 54% 30.37 in 10.0 mi WNW 4.6 mph - N/A   Mostly Cloudy
7:15 PM 23.0 °F 17.0 °F 10.4 °F 59% 30.37 in 10.0 mi NW 4.6 mph - N/A   Mostly Cloudy
7:35 PM 23.0 °F - 10.4 °F 59% 30.36 in 10.0 mi Calm Calm - N/A   Partly Cloudy
7:55 PM 23.0 °F 15.8 °F 12.2 °F 63% 30.36 in 10.0 mi NE 5.8 mph - N/A   Clear
8:15 PM 23.0 °F 18.4 °F 12.2 °F 63% 30.36 in 10.0 mi NE 3.5 mph - N/A   Mostly Cloudy
8:35 PM 23.0 °F - 12.2 °F 63% 30.36 in 10.0 mi Calm Calm - N/A   Partly Cloudy
8:55 PM 23.0 °F 18.4 °F 10.4 °F 59% 30.36 in 10.0 mi East 3.5 mph - N/A   Partly Cloudy
9:15 PM 23.0 °F 18.4 °F 10.4 °F 59% 30.36 in 10.0 mi East 3.5 mph - N/A   Mostly Cloudy
9:35 PM 21.2 °F 14.9 °F 12.2 °F 68% 30.36 in 10.0 mi East 4.6 mph - N/A   Overcast
9:55 PM 21.2 °F 14.9 °F 14.0 °F 74% 30.36 in 10.0 mi East 4.6 mph - N/A   Overcast
10:15 PM 21.2 °F 14.9 °F 14.0 °F 74% 30.36 in 10.0 mi SE 4.6 mph - N/A   Overcast
10:35 PM 21.2 °F 14.9 °F 12.2 °F 68% 30.37 in 10.0 mi SE 4.6 mph - N/A   Overcast
10:55 PM 21.2 °F 14.9 °F 14.0 °F 74% 30.36 in 10.0 mi SE 4.6 mph - N/A   Overcast
11:15 PM 21.2 °F 13.6 °F 14.0 °F 74% 30.36 in 10.0 mi SE 5.8 mph - N/A   Overcast
11:35 PM 21.2 °F 14.9 °F 14.0 °F 74% 30.36 in 10.0 mi SSE 4.6 mph - N/A   Mostly Cloudy
11:55 PM 23.0 °F 14.7 °F 14.0 °F 68% 30.36 in 10.0 mi South 6.9 mph - N/A   Scattered Clouds